Wind_Speed
35 37 39 33 35 33 27 29 20 17 21 26 27 30 24 28 25 19 19 18 23 17 21 28 30 23 19 17 17 16 16 14 13 9 7 6 6 7 7 8 9 11 11 11
30 40 34 29 26 29 30 26 22 25 19 19 23 25 22 23 23 18 16 18 22 23 19 19 30 29 27 20 14 17 17 16 16 13 10 10 8 7 8 9 10 14 15 16
31 25 20 21 25 30 31 27 21 22 21 23 24 21 17 19 14 14 12 10 25 24 21 21 23 28 28 27 18 15 15 14 13 13 13 13 12 8 9 11 12 13 16 18
22 31 33 25 26 25 28 24 26 23 17 19 14 22 19 17 16 17 13 11 12 21 24 26 28 29 30 29 22 15 18 15 13 9 10 11 11 13 14 18 19 16 16 17
20 21 19 24 27 29 25 18 16 15 15 17 18 12 19 18 16 14 16 12 15 16 16 17 22 24 24 32 24 23 21 17 14 10 8 7 11 15 16 19 21 21 19 16
20 16 14 15 14 20 22 15 16 16 12 9 19 14 13 14 10 14 12 11 14 19 23 24 23 24 19 26 31 29 25 18 16 13 9 8 10 16 18 19 20 23 24 18
16 18 24 19 16 16 15 12 9 7 6 9 13 8 11 12 12 12 14 15 15 19 24 25 28 26 21 32 34 33 26 21 17 14 13 10 12 16 18 22 28 27 22 15
7 7 12 14 15 16 16 16 11 5 7 12 9 9 7 13 6 9 12 20 21 19 23 26 30 29 28 33 31 36 28 23 19 15 12 13 13 14 16 18 15 8 15 14
6 7 8 7 5 6 6 8 14 4 10 7 10 14 10 5 6 15 19 22 22 21 23 26 29 31 30 31 34 34 30 24 20 16 13 12 12 12 8 3 3 5 7 12
5 10 10 8 6 10 12 11 8 7 6 13 18 23 19 15 13 16 19 16 15 23 23 27 28 22 19 31 34 31 29 25 20 18 15 12 12 9 9 5 2 2 5 6
10 6 9 9 7 8 15 17 16 13 11 12 14 22 18 16 20 26 26 25 14 16 25 28 26 21 26 29 32 30 29 27 25 21 17 14 12 9 11 10 7 6 6 6
9 8 9 8 7 4 3 3 6 13 10 18 18 31 16 19 20 24 26 23 10 5 17 20 21 21 28 26 28 30 29 29 27 21 19 16 13 11 13 12 10 7 5 5
11 5 10 9 4 9 9 10 10 12 20 23 17 25 21 23 26 24 23 19 10 3 8 15 19 22 24 25 26 26 27 33 31 24 21 17 15 14 14 14 11 9 8 7
9 9 8 10 9 11 13 9 13 15 13 21 24 21 20 23 24 18 14 13 8 3 5 9 9 9 16 20 22 22 26 30 29 23 15 14 20 18 17 16 14 11 10 9
14 10 10 11 14 13 14 12 14 10 16 21 24 26 26 20 17 11 12 10 10 8 7 14 6 9 6 12 17 20 29 32 27 22 21 21 24 23 19 18 16 14 12 10
17 9 17 17 15 12 14 15 18 18 19 15 14 20 21 17 13 9 15 15 15 16 13 8 13 23 21 21 22 23 22 17 23 24 22 22 27 24 20 18 16 14 12 10
25 16 12 17 15 16 11 11 15 21 13 14 8 14 11 11 10 11 17 19 19 17 10 9 11 15 17 23 24 29 31 32 33 23 26 26 30 25 23 22 21 18 15 13
27 22 18 15 14 8 9 11 13 9 8 9 7 6 2 6 6 6 7 8 12 12 10 12 15 18 15 16 18 26 30 33 40 33 29 31 32 28 26 25 23 23 20 20
16 15 12 12 12 9 15 8 5 4 3 9 2 3 3 7 9 5 5 4 5 7 10 13 18 22 24 21 27 33 41 47 64 51 32 34 31 29 27 24 25 25 24 24
11 16 17 6 6 5 5 6 4 5 7 11 9 10 5 2 2 1 2 4 13 15 14 17 20 26 30 32 35 30 33 24 28 40 31 25 23 25 22 22 25 24 25 24
7 7 10 15 7 6 9 7 7 11 6 7 5 7 8 8 9 10 10 14 16 20 18 20 22 18 16 15 19 14 14 25 15 18 24 25 22 20 21 23 24 26 25 25
6 6 3 3 7 6 6 5 9 11 9 8 9 10 9 9 12 12 11 12 18 10 1 7 8 10 8 9 7 6 17 25 17 14 11 15 19 21 22 24 27 29 30 30
4 12 9 6 10 10 9 9 10 11 10 12 13 14 15 14 12 10 5 4 9 9 6 5 6 5 5 5 5 3 8 5 3 12 20 20 21 23 25 27 30 34 36 37
14 10 14 15 16 15 10 11 12 12 13 14 15 15 12 8 2 4 6 9 7 6 6 4 2 4 7 3 4 9 8 11 12 14 16 20 24 27 30 32 34 36 35 33
5 11 19 16 16 13 5 4 6 8 10 7 1 1 3 6 9 9 9 6 6 4 3 3 8 9 11 10 9 9 10 11 14 16 21 24 26 27 28 28 25 22 23 25
10 19 18 17 15 5 2 7 10 5 5 6 3 6 5 2 7 11 7 6 4 4 3 6 8 10 6 7 8 10 12 12 15 17 19 21 20 17 16 16 17 19 22 23
Wind_Direction
243 246 243 241 251 257 261 261 256 261 273 284 281 283 275 256 250 252 239 243 229 241 241 245 243 231 223 223 219 218 221 220 215 200 203 213 221 242 255 269 260 252 249 250
249 249 252 260 257 253 255 254 256 268 276 280 288 289 277 247 240 244 233 233 218 235 239 244 246 243 237 234 235 213 212 225 221 212 215 221 228 242 251 257 271 262 259 256
255 260 264 264 244 241 247 246 250 261 272 278 291 292 280 247 246 233 225 229 222 235 243 247 249 247 249 247 231 213 194 186 205 207 222 233 237 254 265 273 266 263 260 259
266 265 258 252 238 239 248 252 253 260 269 275 283 290 293 272 254 236 219 226 231 233 233 237 246 247 244 247 227 216 200 198 194 194 223 238 241 252 267 280 276 271 267 262
275 266 241 247 251 239 242 251 261 259 260 278 275 272 291 294 278 251 222 233 241 242 238 243 249 256 253 248 227 238 221 209 200 193 217 237 256 257 265 274 266 268 260 246
268 236 227 251 254 251 251 253 255 265 241 251 268 254 280 304 270 250 239 253 265 256 248 250 250 251 245 234 222 228 213 213 212 210 217 252 262 274 276 282 282 272 273 241
321 271 249 244 266 263 241 224 236 226 194 250 257 218 279 299 263 242 252 268 271 261 247 244 249 251 255 219 212 206 207 210 213 216 227 250 256 279 285 299 294 270 260 223
304 298 250 253 262 257 241 218 216 273 253 261 275 252 265 295 269 260 279 283 276 264 244 239 235 243 249 218 205 198 203 204 210 221 234 243 265 275 298 320 303 285 201 219
317 280 252 276 260 275 231 225 236 228 325 272 265 278 284 294 321 316 300 288 268 247 241 237 241 228 227 205 195 196 202 208 203 210 232 249 259 271 284 236 350 110 189 236
318 303 282 245 196 228 266 265 259 208 194 255 274 276 274 280 320 323 301 315 266 253 238 230 226 206 215 185 189 190 198 201 206 217 232 241 253 277 234 239 264 281 269 265
337 303 304 298 250 265 222 231 238 232 262 276 263 273 259 287 300 308 316 312 308 237 226 214 211 203 196 184 188 190 196 195 201 209 226 237 250 250 232 236 236 236 245 251
320 311 295 291 295 308 23 242 251 238 215 229 254 259 278 296 302 304 307 315 319 236 191 196 205 193 187 184 191 197 201 202 217 215 222 229 242 239 233 231 227 226 248 281
320 292 303 296 280 252 292 330 313 306 258 231 233 263 269 279 284 301 303 301 319 319 209 193 191 189 196 202 207 218 218 216 221 219 213 221 230 234 231 232 230 235 253 264
322 268 260 275 270 295 309 314 275 302 281 247 235 258 256 266 282 284 278 293 297 277 195 187 186 209 214 219 218 216 206 213 223 218 212 248 233 233 235 241 245 247 259 271
308 290 258 269 274 268 289 291 300 300 286 264 259 252 253 267 254 259 254 253 271 226 198 169 165 195 246 251 222 210 204 194 195 211 239 223 234 233 236 241 244 251 259 272
301 274 298 286 291 254 286 291 276 275 303 295 272 265 243 236 258 255 230 239 249 238 257 291 234 222 214 248 255 228 218 225 211 217 221 231 233 234 235 242 250 253 259 269
283 287 279 279 279 298 274 278 301 284 301 281 268 235 243 246 237 234 223 231 243 253 258 239 247 234 221 216 236 222 221 217 219 225 237 234 230 229 234 243 251 257 256 255
263 274 267 268 288 265 270 290 317 270 301 316 245 198 124 101 60 277 269 265 267 265 258 238 241 246 241 237 213 233 241 254 263 249 235 222 226 229 236 243 252 253 255 251
259 260 257 248 257 279 285 307 223 255 128 311 305 301 177 122 105 57 14 328 271 265 259 262 261 254 253 244 270 272 262 274 264 222 219 223 221 228 234 242 249 253 256 257
277 260 236 257 239 259 279 124 197 297 225 278 179 238 255 296 269 276 234 266 286 289 281 280 280 275 276 278 280 275 282 292 200 188 201 210 224 235 241 247 248 250 255 254
300 275 251 240 253 253 241 226 195 211 248 279 325 282 284 280 274 265 271 282 290 292 299 298 300 304 305 305 300 284 229 154 137 125 159 179 235 239 246 258 267 269 270 269
353 340 326 270 232 243 290 198 205 234 279 298 297 299 294 293 295 293 283 265 264 271 351 90 72 50 61 75 53 139 155 155 118 111 159 232 246 255 263 271 277 279 281 280
5 343 323 329 304 325 305 275 265 275 279 280 281 286 292 290 295 290 269 131 149 155 153 112 98 97 80 50 5 21 52 85 169 235 246 253 262 268 272 276 280 284 286 287
292 319 334 342 329 321 306 291 288 282 277 273 268 268 275 315 269 145 141 146 164 168 170 178 263 29 21 334 307 301 266 250 250 259 268 272 277 281 282 283 284 283 283 282
12 345 329 331 332 326 309 288 266 264 261 267 261 117 199 172 160 146 140 156 157 154 210 229 255 314 318 304 294 285 290 305 301 295 294 291 288 293 297 297 295 290 286 282
331 336 331 325 328 344 152 65 66 82 94 98 91 33 247 227 170 104 114 121 131 149 221 241 261 264 279 280 290 296 294 296 293 293 292 292 295 300 304 301 300 308 310 308
Height
3138 3139 3134 3140 3145 3148 3150 3149 3150 3153 3156 3153 3150 3147 3148 3149 3150 3151 3150 3150 3152 3153 3154 3157 3161 3163 3164 3164 3164 3166 3168 3170 3171 3171 3173 3174 3175 3175 3176 3175 3175 3175 3176 3177
3133 3128 3133 3138 3141 3143 3143 3142 3144 3147 3150 3148 3144 3140 3141 3142 3143 3144 3143 3143 3146 3148 3150 3153 3156 3158 3158 3161 3163 3163 3165 3167 3169 3170 3171 3172 3173 3173 3174 3174 3174 3174 3174 3174
3128 3130 3131 3132 3135 3135 3134 3137 3141 3143 3144 3143 3141 3135 3136 3136 3136 3137 3137 3139 3141 3143 3145 3147 3149 3152 3154 3155 3158 3161 3163 3165 3166 3168 3169 3169 3170 3171 3172 3172 3171 3171 3170 3170
3123 3123 3124 3125 3127 3130 3131 3135 3137 3138 3140 3138 3138 3130 3131 3131 3131 3131 3132 3134 3136 3138 3140 3141 3142 3145 3147 3151 3156 3157 3160 3161 3163 3165 3165 3166 3167 3168 3168 3167 3167 3166 3166 3165
3118 3117 3119 3119 3120 3123 3125 3130 3132 3133 3134 3134 3133 3131 3125 3126 3124 3126 3128 3129 3132 3133 3135 3136 3137 3137 3142 3145 3153 3154 3156 3157 3159 3161 3163 3163 3163 3164 3163 3162 3161 3161 3160 3159
3114 3115 3116 3117 3118 3119 3123 3125 3127 3127 3128 3128 3126 3126 3122 3121 3122 3123 3124 3125 3127 3129 3129 3130 3131 3131 3132 3136 3143 3147 3151 3154 3155 3157 3159 3160 3160 3160 3159 3157 3155 3153 3154 3154
3113 3110 3112 3115 3117 3116 3118 3121 3122 3122 3121 3120 3120 3121 3119 3117 3116 3117 3118 3119 3121 3122 3123 3124 3126 3126 3126 3128 3133 3141 3146 3149 3152 3153 3155 3156 3156 3155 3155 3150 3145 3142 3146 3150
3111 3109 3109 3112 3113 3113 3112 3114 3117 3117 3115 3116 3118 3114 3113 3113 3111 3112 3112 3112 3112 3113 3115 3117 3119 3119 3120 3121 3127 3136 3141 3145 3148 3150 3151 3152 3153 3153 3152 3147 3139 3136 3141 3146
3112 3109 3109 3110 3109 3111 3110 3111 3115 3119 3118 3119 3113 3109 3108 3108 3107 3107 3105 3104 3103 3105 3107 3109 3110 3111 3112 3116 3123 3131 3137 3142 3144 3147 3148 3149 3149 3150 3148 3146 3145 3141 3144 3146
3112 3109 3106 3107 3107 3106 3109 3111 3112 3112 3115 3119 3109 3105 3105 3102 3101 3099 3099 3096 3094 3095 3097 3101 3103 3104 3107 3113 3120 3127 3132 3137 3141 3143 3145 3145 3146 3147 3146 3145 3144 3143 3143 3143
3111 3109 3107 3104 3104 3104 3105 3105 3106 3107 3110 3107 3103 3099 3099 3099 3097 3095 3093 3091 3087 3085 3088 3093 3098 3100 3104 3111 3117 3123 3127 3131 3134 3138 3141 3141 3142 3143 3143 3143 3141 3141 3142 3141
3110 3107 3104 3102 3100 3099 3098 3100 3099 3101 3101 3100 3102 3093 3094 3095 3093 3092 3090 3088 3085 3082 3084 3089 3095 3099 3104 3109 3114 3118 3123 3126 3129 3133 3136 3138 3139 3140 3141 3141 3139 3138 3139 3139
3109 3106 3103 3100 3100 3097 3097 3096 3098 3097 3096 3092 3091 3086 3091 3090 3090 3089 3088 3086 3084 3083 3084 3087 3090 3093 3097 3103 3110 3115 3119 3122 3125 3129 3132 3134 3135 3136 3138 3138 3138 3136 3136 3136
3106 3104 3103 3100 3098 3096 3095 3094 3093 3093 3093 3087 3083 3085 3086 3086 3087 3086 3085 3085 3084 3083 3084 3088 3092 3096 3099 3103 3106 3109 3114 3120 3122 3126 3129 3133 3133 3134 3134 3135 3135 3135 3134 3133
3105 3101 3099 3096 3094 3093 3092 3091 3089 3090 3089 3086 3084 3082 3081 3082 3084 3083 3084 3084 3086 3087 3087 3087 3091 3095 3101 3103 3105 3107 3109 3106 3115 3122 3124 3126 3130 3131 3131 3132 3132 3132 3132 3131
3099 3098 3095 3091 3090 3089 3088 3086 3085 3083 3079 3078 3079 3079 3079 3080 3080 3081 3081 3082 3083 3084 3086 3084 3089 3092 3096 3103 3104 3106 3107 3107 3116 3118 3122 3124 3126 3127 3129 3128 3128 3129 3128 3127
3093 3093 3092 3088 3087 3086 3085 3082 3080 3078 3077 3075 3076 3075 3075 3075 3077 3076 3077 3079 3081 3083 3085 3089 3091 3096 3093 3098 3102 3100 3102 3108 3111 3113 3119 3120 3120 3122 3124 3124 3124 3125 3123 3122
3085 3088 3088 3085 3085 3082 3080 3078 3076 3075 3073 3072 3074 3073 3073 3073 3073 3076 3076 3078 3079 3080 3082 3084 3087 3090 3092 3095 3096 3097 3104 3105 3106 3108 3110 3113 3114 3115 3117 3118 3119 3119 3118 3117
3082 3082 3082 3081 3080 3080 3076 3075 3075 3071 3069 3073 3072 3074 3074 3071 3071 3072 3074 3076 3076 3076 3078 3080 3083 3083 3085 3089 3090 3090 3088 3087 3084 3093 3102 3105 3105 3107 3110 3111 3113 3113 3111 3110
3079 3078 3079 3078 3077 3074 3074 3073 3074 3073 3070 3070 3072 3074 3073 3071 3072 3072 3071 3072 3074 3074 3076 3075 3075 3076 3076 3077 3076 3073 3067 3063 3049 3068 3089 3094 3094 3101 3103 3105 3106 3105 3104 3103
3077 3076 3075 3076 3076 3073 3071 3073 3073 3076 3076 3070 3070 3071 3070 3070 3070 3071 3070 3070 3069 3071 3072 3070 3069 3066 3066 3067 3065 3061 3057 3059 3046 3057 3076 3084 3094 3097 3098 3099 3099 3099 3097 3096
3077 3075 3074 3073 3072 3073 3070 3072 3073 3071 3069 3068 3068 3068 3068 3068 3068 3069 3070 3070 3069 3069 3069 3067 3066 3067 3068 3068 3066 3061 3060 3060 3060 3068 3078 3088 3092 3093 3093 3092 3091 3089 3088 3087
3080 3079 3077 3076 3073 3072 3070 3069 3069 3068 3067 3066 3066 3065 3064 3064 3065 3066 3068 3068 3069 3070 3070 3069 3070 3072 3071 3070 3072 3071 3070 3068 3071 3077 3082 3085 3085 3085 3085 3083 3082 3081 3078 3076
3076 3076 3075 3073 3071 3068 3066 3065 3065 3064 3064 3063 3062 3062 3062 3063 3063 3064 3066 3068 3068 3068 3068 3068 3070 3070 3070 3071 3071 3071 3073 3075 3077 3079 3079 3079 3078 3077 3076 3074 3072 3071 3069 3065
3077 3075 3072 3071 3068 3065 3063 3063 3063 3062 3060 3061 3061 3061 3061 3061 3061 3061 3063 3064 3065 3065 3066 3067 3068 3068 3069 3069 3069 3071 3071 3069 3069 3069 3069 3069 3069 3068 3065 3064 3063 3062 3058 3055
3075 3073 3071 3068 3066 3065 3064 3064 3062 3059 3059 3060 3061 3061 3060 3060 3059 3058 3061 3061 3063 3063 3064 3064 3066 3067 3067 3067 3067 3067 3068 3068 3067 3067 3066 3064 3062 3061 3059 3059 3058 3053 3048 3046